Вернуться в каталог

ANIK C2 R/B

PAM-D

АктивенHEO
NORAD 14135·ROCKET BODY·🇺🇸 United States

Запущен Jun 18, 1983 с Cape Canaveral Space Force Station

Loading…

Ближайшие Пролёты (ближайшие 24 часа)

TLE

СвежийSource: Space-Track

Эпоха: Sep 14, 2026, 18:32 UTC

1 14135U 83059D   26257.77285394  .00003310  00000-0  20463-2 0  9990
2 14135  23.0333  89.3008 6918443 118.9304 325.9974  2.71742100323910

Отслеживайте ANIK C2 R/B в реальном времени с AllMySat

Download on the App Store